Location: *
(49.5667°N, 1.3667°W)
Time: 09:46:58
(UTC+00:00)

Cosmos 2218 Rocket - Pass Details

Date: 20 September 2019
Orbit: 956 x 1006 km, 82.9° (Epoch: 15 October)

Event Time Altitude Azimuth Distance (km) Brightness Sun altitude
Rises 19:34:38 0° 352° (N) 3,744 7.4 -14.5°
Reaches altitude 10° 19:37:14 10° 356° (N) 2,786 6.7 -14.9°
Maximum altitude 19:43:35 61° 76° (ENE) 1,124 4.1 -15.9°
Enters shadow 19:49:01 14° 155° (SSE) 2,458 5.7 -16.7°
